FW0624 Weather Reports


time (UTC)temp
C
wind
direction
speed
KPH
gust
KPH
rain 1hr
cm
rain 24hr
cm
rain mn
cm
humidity
%
barometer
mb
20260508020555 5 0.0 0.0 0.00 0.00 0.00
20260508015515 5 0.0 0.0 0.00 0.00 0.00
20260508014555 5 0.0 0.0 0.00 0.00 0.00
20260508013535 5 0.0 0.0 0.00 0.00 0.00
20260508012535 5 0.0 0.0 0.00 0.00 0.00
20260508011535 5 0.0 0.0 0.00 0.00 0.00
20260508010515 5 0.0 0.0 0.00 0.00 0.00
20260508005555 5 0.0 0.0 0.00 0.00 0.00
20260508004537 5 0.0 0.0 0.00 0.00 0.00
20260508003515 6 0.0 0.0 0.00 0.00 0.00
20260508002535 6 0.0 0.0 0.00 0.00 0.00
20260508001515 6 0.0 0.0 0.00 0.00 0.00
20260508000535 6 0.0 0.0 0.00 0.00 0.00
20260507235515 6 0.0 0.0 0.00 0.00 0.00
20260507234535 6 0.0 0.0 0.00 0.00 0.00
20260507233535 6 0.0 0.0 0.00 0.00 0.00
20260507232515 7 0.0 0.0 0.00 0.00 0.00
20260507231515 7 0.0 0.0 0.00 0.00 0.00
20260507230555 7 0.0 0.0 0.00 0.00 0.00
20260507225519 7 0.0 0.0 0.00 0.00 0.00
20260507224515 8 0.0 0.0 0.00 0.00 0.00
20260507223535 8 0.0 0.0 0.00 0.00 0.00
20260507222555 8 0.0 0.0 0.00 0.00 0.00
20260507221516 8 0.0 0.0 0.00 0.00 0.00
20260507220516 8 0.0 0.0 0.00 0.00 0.00
20260507215515 9 0.0 0.0 0.00 0.00 0.00
20260507214515 9 0.0 0.0 0.00 0.00 0.00
20260507213635 10 0.0 0.0 0.00 0.00 0.00
20260507212535 10 0.0 0.0 0.00 0.00 0.00
20260507211515 10 0.0 0.0 0.00 0.00 0.00
20260507210515 10 0.0 0.0 0.00 0.00 0.00
20260507205555 10 0.0 0.0 0.00 0.00 0.00
20260507204515 10 0.0 0.0 0.00 0.00 0.00
20260507203515 10 0.0 0.0 0.00 0.00 0.00
20260507202615 10 0.0 0.0 0.00 0.00 0.00
20260507201542 10 119 0.0 1.6 0.00 0.00 0.00
20260507200535 10 103 0.0 1.6 0.00 0.00 0.00
20260507194515 11 114 0.0 3.2 0.00 0.00 0.00
20260507193555 11 108 1.6 6.4 0.00 0.00 0.00
20260507192555 11 93 0.0 3.2 0.00 0.00 0.00
20260507191515 11 110 0.0 3.2 0.00 0.00 0.00
20260507190515 11 139 0.0 9.7 0.00 0.00 0.00
20260507185556 11 103 1.6 9.7 0.00 0.00 0.00
20260507184515 11 117 1.6 9.7 0.00 0.00 0.00
20260507183615 11 80 1.6 8.0 0.00 0.00 0.00
20260507182615 11 93 1.6 8.0 0.00 0.00 0.00
20260507181515 11 78 3.2 9.7 0.00 0.00 0.00
20260507180515 11 99 1.6 9.7 0.00 0.00 0.00
20260507175615 11 126 3.2 12.9 0.00 0.00 0.00
20260507174617 12 48 3.2 9.7 0.00 0.00 0.00
20260507173555 12 109 3.2 9.7 0.00 0.00 0.00
20260507172515 12 124 4.8 16.1 0.00 0.00 0.00
20260507171516 12 104 3.2 8.0 0.00 0.00 0.00
20260507170515 12 117 4.8 16.1 0.00 0.00 0.00
20260507165515 12 105 3.2 9.7 0.00 0.00 0.00
20260507164515 13 112 3.2 11.3 0.00 0.00 0.00
20260507163635 13 89 3.2 6.4 0.00 0.03 0.00
20260507162515 13 122 4.8 11.3 0.00 0.05 0.00
20260507161515 13 113 3.2 9.7 0.00 0.05 0.00
20260507160515 13 117 1.6 11.3 0.00 0.08 0.00
20260507155515 14 122 1.6 6.4 0.00 0.08 0.00
20260507154515 15 128 3.2 11.3 0.00 0.08 0.00
20260507153515 15 134 1.6 12.9 0.00 0.08 0.00
20260507152515 15 135 1.6 14.5 0.00 0.08 0.00
20260507151615 16 89 1.6 11.3 0.00 0.08 0.00
20260507150615 16 113 1.6 8.0 0.00 0.08 0.00
20260507145555 16 135 6.4 14.5 0.00 0.08 0.00
20260507142535 18 118 6.4 16.1 0.00 0.08 0.00
20260507141515 18 109 3.2 9.7 0.00 0.08 0.00
20260507140515 19 119 4.8 14.5 0.00 0.08 0.00
20260507135635 19 140 6.4 14.5 0.00 0.08 0.00
20260507134535 18 129 6.4 12.9 0.00 0.08 0.00
20260507133555 18 97 3.2 11.3 0.00 0.08 0.00
20260507132559 18 131 4.8 14.5 0.00 0.08 0.00
20260507131515 18 130 6.4 12.9 0.00 0.08 0.00
20260507130535 18 128 3.2 12.9 0.00 0.08 0.00
20260507125635 18 94 3.2 11.3 0.00 0.08 0.00
20260507124555 17 58 0.0 6.4 0.00 0.08 0.00
20260507123535 17 138 6.4 16.1 0.00 0.08 0.00
20260507122537 16 119 3.2 9.7 0.00 0.08 0.00
20260507121555 17 106 1.6 11.3 0.00 0.08 0.00
20260507120535 16 144 3.2 12.9 0.00 0.08 0.00
20260507115535 15 117 3.2 12.9 0.00 0.08 0.00
20260507114515 15 122 1.6 12.9 0.00 0.08 0.00
20260507113536 15 117 3.2 12.9 0.00 0.08 0.00
20260507112535 13 72 1.6 6.4 0.00 0.08 0.00
20260507111515 13 30 1.6 11.3 0.00 0.08 0.00
20260507110535 13 42 0.0 4.8 0.00 0.08 0.00
20260507105535 13 72 0.0 1.6 0.00 0.08 0.00
20260507104535 13 91 0.0 4.8 0.00 0.08 0.00
20260507103515 13 0.0 0.0 0.00 0.08 0.00
20260507102555 13 51 1.6 4.8 0.00 0.08 0.00
20260507101516 13 127 1.6 9.7 0.00 0.08 0.00
20260507100515 12 31 3.2 8.0 0.00 0.08 0.00
20260507095615 12 333 0.0 3.2 0.00 0.08 0.00
20260507094535 12 24 1.6 6.4 0.00 0.08 0.00
20260507093516 12 7 1.6 9.7 0.00 0.08 0.00
20260507092515 12 13 1.6 8.0 0.00 0.08 0.00
20260507091655 12 12 1.6 8.0 0.00 0.08 0.00
20260507090615 12 358 1.6 6.4 0.00 0.08 0.00
20260507085635 12 12 1.6 6.4 0.00 0.08 0.00
20260507084535 12 32 1.6 4.8 0.00 0.08 0.00
20260507083515 12 82 1.6 8.0 0.00 0.08 0.00
20260507082515 11 51 1.6 4.8 0.00 0.08 0.00
20260507081515 11 96 1.6 4.8 0.00 0.08 0.00
20260507080555 11 138 1.6 6.4 0.00 0.08 0.00
20260507075515 10 52 1.6 6.4 0.00 0.08 0.00
20260507074515 10 0.0 0.0 0.00 0.08 0.00
20260507073515 10 24 1.6 6.4 0.00 0.08 0.00
20260507072516 10 16 1.6 6.4 0.00 0.08 0.00
20260507071555 9 26 3.2 8.0 0.00 0.08 0.00
20260507070515 8 15 1.6 6.4 0.00 0.08 0.00
20260507065555 8 14 1.6 6.4 0.00 0.08 0.00
20260507064535 8 42 0.0 3.2 0.00 0.08 0.00
20260507063515 8 0.0 0.0 0.00 0.08 0.00
20260507062555 7 0.0 0.0 0.00 0.08 0.00
20260507061535 7 23 0.0 1.6 0.00 0.08 0.00
20260507060515 6 0.0 0.0 0.00 0.08 0.00
20260507055515 6 0.0 0.0 0.00 0.08 0.00
20260507054515 5 0.0 0.0 0.00 0.08 0.00
20260507053515 5 0.0 0.0 0.00 0.08 0.00
20260507052515 5 0.0 0.0 0.00 0.08 0.00
20260507051516 5 0.0 0.0 0.00 0.08 0.00
20260507050515 4 0.0 0.0 0.00 0.08 0.00
20260507045515 3 0.0 0.0 0.00 0.08 0.00
20260507044515 3 0.0 0.0 0.00 0.08 0.00
20260507043515 3 0.0 0.0 0.00 0.08 0.00
20260507042515 3 0.0 0.0 0.00 0.08 0.00
20260507041515 4 0.0 0.0 0.00 0.08 0.00
20260507040555 4 0.0 0.0 0.00 0.08 0.00
20260507035515 5 0.0 0.0 0.00 0.08 0.00
20260507034535 5 0.0 0.0 0.00 0.08 0.00
20260507033516 5 0.0 0.0 0.00 0.08 0.00
20260507032515 5 0.0 0.0 0.00 0.08 0.00
20260507031515 5 0.0 0.0 0.00 0.08 0.00
20260507030515 5 0.0 0.0 0.00 0.08 0.00
20260507025515 5 0.0 0.0 0.00 0.08 0.00
20260507024555 5 0.0 0.0 0.00 0.08 0.00
20260507023535 5 0.0 0.0 0.00 0.08 0.00
20260507022515 5 0.0 0.0 0.00 0.08 0.00
20260507021555 5 0.0 0.0 0.00 0.08 0.00